[[{"header":{"parameterUnit":"m.s-1","parameterCategory":1,"la1":30.2991,"la2":30.254,"lo1":-89.0895,"lo2":-89.0444,"dy":0.0017,"dx":0.0017,"nx":28,"ny":28,"refTime":"2023-03-31T21:00:00:Z","depth":0,"parameterNumber":2,"parameterNumberName":"U-component_of_WINDS"},"data":[0,0,0,0,0,0,0,0,0,0,0,0,0,0,0,0,0,0,0,0,0,0,0,0,0,0,0,0,0,0,0,0,0,0,0,0,0,0,0,0,0,0,0,0,0,0,0,0,0,0,0,0,0,0,0,0,0,0,-4.6983,-4.6983,0,-4.6962,-4.6962,-4.6962,-4.6832,-4.6829,-4.6826,-4.6823,-4.6803,-4.6805,-4.6808,0,0,0,0,0,0,0,0,0,0,0,0,0,-4.6911,-4.6913,-4.6983,-4.6983,-4.6983,-4.6962,-4.6962,-4.6962,-4.6833,-4.6829,-4.6825,-4.6821,-4.6802,-4.6805,-4.6808,0,0,0,0,0,0,0,0,0,0,0,0,0,-4.6922,-4.6914,-4.6983,-4.6916,-4.6909,-4.6963,-4.6962,-4.6962,-4.6833,-4.6829,-4.6824,-4.682,-4.6801,-4.6805,-4.6808,-4.6925,0,0,-4.6819,-4.6821,0,0,0,0,0,0,0,0,-4.6922,-4.6925,-4.6926,-4.692,-4.6913,-4.6895,-4.6929,-4.695,-4.6835,-4.6862,-4.6823,-4.6817,-4.6837,-4.6838,-4.6844,-4.6924,-4.6923,-4.6819,-4.6822,-4.6823,-4.6824,0,0,0,0,0,0,0,-4.6921,-4.6925,-4.6975,-4.6926,-4.6918,-4.6887,-4.6883,-4.6933,-4.6877,-4.686,-4.685,-4.6849,-4.6833,-4.6841,-4.6843,-4.6923,-4.6819,-4.6823,-4.6825,-4.6826,-4.7099,-4.7104,0,0,0,0,0,0,-4.693,-4.6925,-4.6975,-4.6974,-4.6906,-4.6892,-4.6888,-4.6906,-4.6876,-4.6867,-4.6853,-4.6843,-4.6837,-4.6839,-4.6842,-4.6978,-4.6823,-4.6827,-4.6829,-4.7094,-4.71,-4.7105,0,0,0,0,0,0,-4.6929,-4.6935,-4.6976,-4.6947,-4.695,-4.6898,-4.6919,-4.6908,-4.6916,-4.6871,-4.686,-4.6872,-4.6834,-4.6837,-4.6905,-4.6975,-4.6828,-4.6831,-4.7088,-4.7096,-4.7103,-4.725,0,0,0,0,0,0,-4.6927,-4.6936,-4.6979,-4.6949,-4.6952,-4.7041,-4.6924,-4.6911,-4.6922,-4.6909,-4.6886,-4.6877,-4.683,-4.6901,-4.6909,-4.6977,-4.6834,-4.7081,-4.7091,-4.71,-4.7239,-4.7262,-4.7282,0,0,0,0,0,-4.6925,-4.7021,-4.6982,-4.6989,-4.7005,-4.7045,-4.7046,-4.699,-4.6928,-4.6972,-4.6943,-4.6878,-4.6966,-4.6909,-4.6917,-4.6988,-4.7077,-4.7088,-4.71,-4.7229,-4.7257,-4.7281,0,0,0,0,0,0,-4.7061,-4.7016,-4.6972,-4.7062,-4.7058,-4.7023,-4.7076,-4.7021,-4.7035,-4.7023,-4.6952,-4.6948,-4.7028,-4.7014,-4.6951,-4.71,-4.701,-4.7024,-4.7106,-4.7132,-4.7153,-4.7156,-4.6837,0,0,0,0,0,-4.7102,-4.7137,-4.7096,-4.7179,-4.7179,-4.7129,-4.7144,-4.7101,-4.7094,-4.7092,-4.7068,-4.7065,-4.7092,-4.7111,-4.7133,-4.7236,-4.723,-4.7288,-4.731,-4.7327,-4.7341,-4.7396,-4.7422,-4.7143,-4.7143,-4.7143,0,0,-4.7186,-4.7165,-4.7192,-4.7206,-4.7198,-4.7237,-4.7128,-4.7174,-4.7202,-4.7099,-4.7163,-4.7146,-4.7137,-4.7224,-4.7261,-4.7215,-4.7416,-4.7342,-4.7357,-4.736,-4.741,-4.7437,-4.746,-4.7151,-4.7149,-4.7148,0,0,-4.7359,-4.7347,-4.7415,-4.741,-4.7399,-4.7365,-4.7382,-4.7355,-4.734,-4.7403,-4.7326,-4.7359,-4.7406,-4.7404,-4.7409,-4.7583,-4.7524,-4.7592,-4.7704,-4.7759,-4.7781,-4.78,-4.7863,-4.7887,-4.7605,-4.7605,-4.7605,0,-4.7465,-4.7521,-4.7458,-4.7509,-4.7518,-4.7426,-4.7495,-4.7493,-4.7491,-4.7499,-4.7447,-4.7506,-4.7493,-4.7579,-4.7622,-4.7628,-4.7646,-4.7595,-4.7782,-4.7801,-4.7818,-4.7878,-4.7902,-4.7614,-4.7613,-4.7612,-4.7611,0,-4.7652,-4.7692,-4.7749,-4.7749,-4.7764,-4.7824,-4.7771,-4.7794,-4.775,-4.7721,-4.7787,-4.7769,-4.7787,-4.7804,-4.7761,-4.7884,-4.7856,-4.7795,-4.7703,-4.7854,-4.7909,-4.7932,-4.7626,-4.7623,-4.762,-4.7618,0,0,-4.7912,-4.7877,-4.7899,-4.7899,-4.788,-4.791,-4.7967,-4.7984,-4.8005,-4.8007,-4.8053,-4.8096,-4.8039,-4.8045,-4.8001,-4.8048,-4.8189,-4.7981,-4.798,-4.8022,-4.8326,-4.8374,-4.8402,-4.8149,-4.8154,-4.8157,-4.8328,0,-4.808,-4.8174,-4.8119,-4.8222,-4.8259,-4.8172,-4.8221,-4.8216,-4.8191,-4.8219,-4.819,-4.8223,-4.8144,-4.8147,-4.819,-4.8163,-4.825,-4.815,-4.8193,-4.8196,-4.82,-4.843,-4.848,-4.8642,-4.8348,-4.8352,-4.8355,0,-4.8288,-4.8299,-4.8406,-4.8382,-4.8395,-4.844,-4.8452,-4.8479,-4.8472,-4.845,-4.8458,-4.8402,-4.8457,-4.8366,-4.844,-4.8374,-4.8388,-4.8378,-4.8382,-4.8386,-4.8286,-4.8441,-4.8692,-4.8718,-4.8388,-4.8385,-4.8383,0,-4.8469,-4.851,-4.858,-4.8582,-4.8555,-4.8589,-4.858,-4.8567,-4.8582,-4.8592,-4.8601,-4.8617,-4.8627,-4.8642,-4.8593,-4.8531,-4.8675,-4.8579,-4.866,-4.8661,-4.8695,-4.8694,-4.8954,-4.8702,-4.8702,-4.8701,-4.8701,0,-4.8663,-4.8732,-4.8661,-4.8704,-4.8779,-4.8715,-4.8791,-4.8772,-4.8763,-4.8801,-4.8726,-4.8764,-4.8696,-4.8727,-4.8689,-4.8758,-4.8762,-4.8747,-4.8736,-4.8755,-4.8757,-4.8764,-4.8753,-4.8707,-4.8706,-4.8705,-4.8704,0,-4.8879,-4.8833,-4.8904,-4.8873,-4.8866,-4.8924,-4.8897,-4.8936,-4.8905,-4.8955,-4.8963,-4.8916,-4.8949,-4.8901,-4.8928,-4.8902,-4.8998,-4.8969,-4.9001,-4.8993,-4.9077,-4.907,-4.9352,-4.9387,-4.9111,-4.9114,-4.9116,0,-4.9007,-4.9058,-4.9033,-4.9053,-4.9048,-4.9081,-4.9095,-4.9035,-4.9053,-4.9049,-4.9089,-4.9115,-4.9133,-4.919,-4.9158,-4.9179,-4.9152,-4.9249,-4.9154,-4.9172,-4.9155,-4.9154,-4.9159,-4.9269,-4.9272,-4.9275,-4.9277,0,-4.9239,-4.9214,-4.9237,-4.9254,-4.9273,-4.9283,-4.9287,-4.9308,-4.9244,-4.9268,-4.9301,-4.9315,-4.9343,-4.9371,-4.9384,-4.9374,-4.9317,-4.9307,-4.9327,-4.9347,-4.9364,-4.9358,-4.9055,-4.9301,-4.9299,-4.9297,-4.9296,-4.9295,-4.9415,-4.9458,-4.9447,-4.9476,-4.9472,-4.9478,-4.9514,-4.9488,-4.9514,-4.9532,-4.9495,-4.9537,-4.9529,-4.9541,-4.9538,-4.9571,-4.9528,-4.9557,-4.9564,-4.9573,-4.9587,-4.9358,-4.9572,-4.9572,-4.9571,-4.957,-4.957,0,-4.9646,-4.9634,-4.9661,-4.967,-4.9693,-4.9635,-4.9637,-4.9661,-4.9699,-4.9696,-4.9715,-4.9754,-4.978,-4.9751,-4.9773,-4.9805,-4.9779,-4.9813,-4.9811,-4.981,-4.9622,-4.9604,-4.9834,-4.9834,-4.9833,-4.9833,-4.9833,-4.9833,-4.9768,-4.9837,-4.9811,-4.9878,-4.9865,-4.9907,-4.9913,-4.9918,-4.9916,-4.9962,-4.9984,-4.9964,-4.9951,-4.9971,-4.9994,-4.9985,-4.9997,-5.0041,-5.0023,-4.9849,-4.9823,-4.9798,-4.978,-5.0043,-5.0044,-5.0207,-5.0209,-5.021]},{"header":{"parameterUnit":"m.s-1","parameterCategory":1,"la1":30.2991,"la2":30.254,"lo1":-89.0895,"lo2":-89.0444,"dy":0.0017,"dx":0.0017,"nx":28,"ny":28,"refTime":"2023-03-31T21:00:00:Z","depth":0,"parameterNumber":3,"parameterNumberName":"V-component_of_WINDS"},"data":[0,0,0,0,0,0,0,0,0,0,0,0,0,0,0,0,0,0,0,0,0,0,0,0,0,0,0,0,0,0,0,0,0,0,0,0,0,0,0,0,0,0,0,0,0,0,0,0,0,0,0,0,0,0,0,0,0,0,-2.2591,-2.2591,0,-2.2651,-2.2652,-2.2653,-2.2652,-2.2651,-2.265,-2.2649,-2.2709,-2.2712,-2.2714,0,0,0,0,0,0,0,0,0,0,0,0,0,-2.2472,-2.2474,-2.2591,-2.2591,-2.2592,-2.2651,-2.2652,-2.2653,-2.2652,-2.2651,-2.265,-2.2649,-2.2709,-2.2711,-2.2714,0,0,0,0,0,0,0,0,0,0,0,0,0,-2.2527,-2.2475,-2.2591,-2.2599,-2.26,-2.2651,-2.2652,-2.2653,-2.2652,-2.2651,-2.265,-2.2648,-2.2708,-2.2711,-2.2715,-2.276,0,0,-2.2725,-2.2727,0,0,0,0,0,0,0,0,-2.2524,-2.2532,-2.2597,-2.2598,-2.26,-2.2643,-2.2632,-2.2689,-2.2652,-2.2632,-2.2649,-2.2648,-2.2688,-2.2693,-2.2707,-2.2763,-2.2766,-2.2726,-2.2728,-2.2729,-2.273,0,0,0,0,0,0,0,-2.252,-2.2529,-2.2615,-2.2598,-2.26,-2.2599,-2.2605,-2.2643,-2.2666,-2.2634,-2.2634,-2.2641,-2.2689,-2.2704,-2.2708,-2.2767,-2.2726,-2.2729,-2.2731,-2.2732,-2.2863,-2.2864,0,0,0,0,0,0,-2.2515,-2.2526,-2.2613,-2.2616,-2.2558,-2.2602,-2.2609,-2.263,-2.2666,-2.267,-2.2642,-2.2641,-2.2698,-2.2704,-2.271,-2.2767,-2.2729,-2.2733,-2.2735,-2.2862,-2.2863,-2.2865,0,0,0,0,0,0,-2.2512,-2.2523,-2.261,-2.2571,-2.2582,-2.2605,-2.2629,-2.2632,-2.2647,-2.2672,-2.2676,-2.2654,-2.2697,-2.2706,-2.2748,-2.2769,-2.2734,-2.2737,-2.286,-2.2862,-2.2864,-2.2879,0,0,0,0,0,0,-2.2509,-2.2522,-2.254,-2.2572,-2.2584,-2.2648,-2.263,-2.2634,-2.2653,-2.2652,-2.2684,-2.2688,-2.2697,-2.2743,-2.2752,-2.2773,-2.274,-2.2858,-2.2861,-2.2863,-2.2877,-2.2881,-2.2885,0,0,0,0,0,-2.2505,-2.2542,-2.2541,-2.2552,-2.2608,-2.2649,-2.2656,-2.2667,-2.2655,-2.2673,-2.2689,-2.2687,-2.2765,-2.2747,-2.2757,-2.278,-2.2857,-2.286,-2.2863,-2.2875,-2.2881,-2.2885,0,0,0,0,0,0,-2.2511,-2.2546,-2.2546,-2.2594,-2.2618,-2.2649,-2.2672,-2.2672,-2.27,-2.2698,-2.2709,-2.2716,-2.2759,-2.2773,-2.2753,-2.2826,-2.2809,-2.2815,-2.2815,-2.282,-2.2825,-2.2821,-2.2743,0,0,0,0,0,-2.2519,-2.255,-2.2578,-2.2618,-2.263,-2.2649,-2.2667,-2.2673,-2.2699,-2.2709,-2.2728,-2.2752,-2.2782,-2.2802,-2.2831,-2.2879,-2.2885,-2.2899,-2.2903,-2.2906,-2.2911,-2.2937,-2.2944,-2.2875,-2.2875,-2.2875,0,0,-2.2534,-2.2556,-2.2575,-2.2619,-2.2639,-2.2671,-2.2658,-2.2691,-2.2714,-2.2714,-2.2756,-2.277,-2.2798,-2.2843,-2.2864,-2.2857,-2.2931,-2.291,-2.2913,-2.2916,-2.2941,-2.2947,-2.2953,-2.2877,-2.2877,-2.2876,0,0,-2.2577,-2.2597,-2.2633,-2.2653,-2.2683,-2.2695,-2.2704,-2.2734,-2.2744,-2.2786,-2.2786,-2.2813,-2.2865,-2.2885,-2.2901,-2.2952,-2.295,-2.2961,-2.2983,-2.3008,-2.3014,-2.3018,-2.3037,-2.3043,-2.2965,-2.2965,-2.2965,0,-2.2592,-2.264,-2.2651,-2.2685,-2.2704,-2.2705,-2.2741,-2.276,-2.2798,-2.2811,-2.2802,-2.2866,-2.2885,-2.2935,-2.2947,-2.2961,-2.297,-2.2958,-2.3012,-2.3017,-2.3022,-2.3039,-2.3046,-2.2966,-2.2966,-2.2966,-2.2966,0,-2.2657,-2.269,-2.2715,-2.2752,-2.2774,-2.2808,-2.2824,-2.2845,-2.2848,-2.2861,-2.2904,-2.2926,-2.296,-2.2972,-2.2976,-2.3022,-2.3017,-2.301,-2.2994,-2.3029,-2.3046,-2.3053,-2.2968,-2.2967,-2.2967,-2.2967,0,0,-2.2707,-2.275,-2.2759,-2.2775,-2.2808,-2.2834,-2.2868,-2.2902,-2.2919,-2.2945,-2.2974,-2.3017,-2.3011,-2.303,-2.3036,-2.3058,-2.3096,-2.3048,-2.3049,-2.3057,-2.3149,-2.3155,-2.3162,-2.3095,-2.3097,-2.3098,-2.3147,0,-2.2754,-2.2816,-2.2827,-2.2881,-2.2911,-2.2912,-2.2942,-2.2965,-2.2978,-2.3005,-2.3018,-2.3049,-2.3038,-2.305,-2.3072,-2.3087,-2.3115,-2.3084,-2.3122,-2.3123,-2.3116,-2.3171,-2.3177,-2.3222,-2.3153,-2.3154,-2.3155,0,-2.2818,-2.2847,-2.2904,-2.2933,-2.2946,-2.2972,-2.3004,-2.303,-2.3055,-2.3063,-2.3084,-2.3087,-2.3122,-2.3104,-2.3152,-2.313,-2.3146,-2.3156,-2.3158,-2.3163,-2.3142,-2.3177,-2.3237,-2.3244,-2.3165,-2.3165,-2.3164,0,-2.285,-2.2902,-2.2943,-2.2957,-2.2992,-2.301,-2.3025,-2.305,-2.3069,-2.3096,-2.3109,-2.3139,-2.3156,-2.3179,-2.319,-2.3175,-2.3237,-2.322,-2.3244,-2.3244,-2.3258,-2.3257,-2.3321,-2.3267,-2.3267,-2.3267,-2.3267,0,-2.2902,-2.2937,-2.2958,-2.2983,-2.3022,-2.3033,-2.3071,-2.3085,-2.3107,-2.3135,-2.3137,-2.3162,-2.3175,-2.3202,-2.3211,-2.3249,-2.3257,-2.3264,-2.3266,-2.3264,-2.3263,-2.3275,-2.3272,-2.3269,-2.3268,-2.3268,-2.3267,0,-2.2945,-2.296,-2.3004,-2.3033,-2.3041,-2.3069,-2.3093,-2.3117,-2.3129,-2.3164,-2.3173,-2.3192,-2.3224,-2.3237,-2.3276,-2.3282,-2.3326,-2.3326,-2.3318,-2.3319,-2.3343,-2.334,-2.3418,-2.3428,-2.3367,-2.3367,-2.3368,0,-2.2977,-2.3005,-2.3036,-2.3055,-2.3071,-2.3102,-2.3121,-2.3133,-2.3153,-2.3184,-2.3205,-2.3237,-2.3263,-2.3315,-2.3332,-2.3361,-2.3362,-2.3387,-2.3366,-2.3364,-2.3363,-2.3361,-2.3364,-2.3391,-2.3391,-2.3392,-2.3392,0,-2.3034,-2.304,-2.3069,-2.3101,-2.3124,-2.3149,-2.3174,-2.3189,-2.3204,-2.3226,-2.326,-2.328,-2.3321,-2.3353,-2.3383,-2.3398,-2.3398,-2.3398,-2.3406,-2.3405,-2.3399,-2.3403,-2.3329,-2.3397,-2.3396,-2.3396,-2.3396,-2.3395,-2.3073,-2.3097,-2.3124,-2.3155,-2.3175,-2.3198,-2.3222,-2.3237,-2.3265,-2.33,-2.3304,-2.334,-2.3364,-2.3405,-2.3421,-2.3449,-2.3442,-2.3453,-2.3456,-2.3458,-2.346,-2.3394,-2.3454,-2.3454,-2.3454,-2.3454,-2.3454,0,-2.313,-2.3147,-2.3176,-2.3211,-2.3236,-2.3234,-2.326,-2.3281,-2.3313,-2.3336,-2.3362,-2.34,-2.3431,-2.345,-2.3481,-2.3499,-2.3499,-2.3507,-2.3506,-2.3509,-2.3464,-2.3455,-2.3506,-2.3506,-2.3506,-2.3506,-2.3506,-2.3506,-2.3163,-2.3204,-2.3213,-2.3263,-2.3279,-2.3315,-2.333,-2.3351,-2.3369,-2.3412,-2.3438,-2.345,-2.3472,-2.3504,-2.3532,-2.3537,-2.3548,-2.3556,-2.356,-2.3518,-2.3512,-2.3507,-2.3499,-2.3558,-2.3558,-2.3603,-2.3603,-2.3604]}]]